Weather History for Laurinburg-Maxton, NC

Change the Weather History Date:

Tuesday, June 4, 2013

  Actual Average (KLBT) Record (KLBT)
Temperature  
Mean Temperature 73 °F 75 °F  
Max Temperature 82 °F 86 °F 97 °F (2008)
Min Temperature 64 °F 64 °F 61 °F (2011)
Degree Days  
Heating Degree Days 0 0  
Month to date heating degree days 0  
Since 1 June heating degree days 0  
Since 1 July heating degree days 2761  
Cooling Degree Days 8 10  
Month to date cooling degree days 40  
Year to date cooling degree days 290  
Since 1 June cooling degree days 40  
Growing Degree Days 23 (Base 50)    
Moisture  
Dew Point 67 °F    
Average Humidity 86    
Maximum Humidity 100    
Minimum Humidity 56    
Precipitation  
Precipitation 0.01 in 0.17 in 2.20 in (2004)
Month to date precipitation 0.68  
Year to date precipitation 15.75  
Sea Level Pressure  
Sea Level Pressure 29.99 in    
Wind  
Wind Speed 4 mph (NE)    
Max Wind Speed 13 mph    
Max Gust Speed -    
Visibility 6 miles    
Events Fog    
T = Trace of Precipitation, MM = Missing Value Source: NWS Daily Summary

Daily Weather History Graph

Daily Weather History Graph

Search for Another Location

Airport:

Trip Planner

Search our weather history database for the weather conditions in past years. The results will help you decide how hot, cold, wet, or windy it might be!

Date:

Astronomy

Jun. 04, 2013 Rise Set
Actual Time 6:04 AM EDT 8:27 PM EDT
Civil Twilight 5:35 AM EDT 8:56 PM EDT
Nautical Twilight 4:59 AM EDT 9:32 PM EDT
Astronomical Twilight 4:19 AM EDT 10:12 PM EDT
Moon 3:25 AM EDT (6/4) 5:01 PM EDT (6/4)
Length of Visible Light 15h 21m
Length of Day
14h 23m
Waning Crescent, 14% of the Moon is Illuminated
Jun 4
Waning Crescent
Jun 8
New
Jun 16
First Quarter
Jun 23
Full
Jun 30
Last Quarter

Hourly Weather History & Observations

Time (EDT) Temp. Heat Index Dew Point Humidity Pressure Visibility Wind Dir Wind Speed Gust Speed Precip Events Conditions
12:05 AM 68.0 °F - 66.2 °F 94% 29.96 in 2.5 mi Calm Calm - N/A   Clear
12:12 AM 68.0 °F - 68.0 °F 100% 29.96 in 5.0 mi Calm Calm - N/A   Clear
12:52 AM 68.0 °F - 68.0 °F 100% 29.95 in 4.0 mi Calm Calm - N/A   Clear
1:30 AM 69.8 °F - 68.0 °F 94% 29.96 in 1.2 mi Calm Calm - N/A   Clear
1:34 AM 66.2 °F - 66.2 °F 100% 29.96 in 0.5 mi WSW 3.5 mph - N/A Fog Fog
1:40 AM 66.2 °F - 66.2 °F 100% 29.96 in 1.0 mi Calm Calm - N/A   Clear
1:47 AM 66.2 °F - 66.2 °F 100% 29.96 in 1.0 mi Calm Calm - N/A   Mist
1:52 AM 66.9 °F - 66.0 °F 97% 29.95 in 0.5 mi Calm Calm - N/A Fog Fog
2:24 AM 66.2 °F - 66.2 °F 100% 29.96 in 1.0 mi North 5.8 mph - N/A   Mist
2:36 AM 66.2 °F - 66.2 °F 100% 29.95 in 0.8 mi North 6.9 mph - N/A   Mist
2:45 AM 66.2 °F - 66.2 °F 100% 29.95 in 2.0 mi NNE 3.5 mph - N/A   Mostly Cloudy
2:49 AM 66.2 °F - 66.2 °F 100% 29.95 in 4.0 mi NNE 3.5 mph - N/A   Scattered Clouds
2:52 AM 66.0 °F - 66.0 °F 100% 29.95 in 5.0 mi NNE 4.6 mph - N/A   Scattered Clouds
3:26 AM 66.2 °F - 66.2 °F 100% 29.95 in 1.5 mi Calm Calm - N/A   Partly Cloudy
3:29 AM 66.2 °F - 66.2 °F 100% 29.95 in 0.8 mi Calm Calm - N/A   Mist
3:37 AM 66.2 °F - 66.2 °F 100% 29.95 in 0.5 mi Calm Calm - N/A Fog Fog
3:43 AM 64.4 °F - 64.4 °F 100% 29.95 in 1.0 mi Calm Calm - N/A   Mist
3:47 AM 64.4 °F - 64.4 °F 100% 29.95 in 0.8 mi Calm Calm - N/A   Scattered Clouds
3:52 AM 64.9 °F - 64.9 °F 100% 29.94 in 0.5 mi WSW 3.5 mph - 0.01 in Fog Fog
4:02 AM 64.4 °F - 64.4 °F 100% 29.94 in 1.0 mi NW 3.5 mph - N/A   Mostly Cloudy
4:09 AM 64.4 °F - 64.4 °F 100% 29.94 in 3.0 mi North 4.6 mph - N/A   Scattered Clouds
4:52 AM 64.9 °F - 64.9 °F 100% 29.94 in 10.0 mi Calm Calm - N/A   Clear
5:52 AM 66.0 °F - 64.9 °F 96% 29.96 in 10.0 mi NNE 5.8 mph - N/A   Mostly Cloudy
6:52 AM 66.0 °F - 64.9 °F 96% 29.98 in 10.0 mi North 3.5 mph - N/A   Partly Cloudy
7:52 AM 68.0 °F - 66.0 °F 93% 30.00 in 10.0 mi North 3.5 mph - N/A   Scattered Clouds
8:52 AM 73.0 °F - 68.0 °F 84% 30.01 in 10.0 mi NNE 6.9 mph - N/A   Clear
9:52 AM 75.9 °F - 69.1 °F 79% 30.03 in 10.0 mi ENE 8.1 mph - N/A   Clear
10:40 AM 78.8 °F - 69.8 °F 74% 30.04 in 10.0 mi NE 10.4 mph - N/A   Mostly Cloudy
10:52 AM 75.9 °F - 68.0 °F 76% 30.04 in 10.0 mi NE 12.7 mph - N/A   Mostly Cloudy
11:21 AM 78.8 °F - 69.8 °F 74% 30.05 in 10.0 mi ENE 11.5 mph - N/A   Scattered Clouds
11:29 AM 77.0 °F - 68.0 °F 74% 30.05 in 10.0 mi ENE 10.4 mph - N/A   Mostly Cloudy
11:36 AM 78.8 °F - 68.0 °F 69% 30.05 in 10.0 mi ENE 12.7 mph - N/A   Scattered Clouds
11:52 AM 78.1 °F - 69.1 °F 74% 30.05 in 10.0 mi East 10.4 mph - N/A   Scattered Clouds
12:52 PM 78.1 °F - 68.0 °F 71% 30.05 in 10.0 mi East 11.5 mph - N/A   Mostly Cloudy
1:38 PM 78.8 °F - 68.0 °F 69% 30.04 in 10.0 mi East 9.2 mph - N/A   Mostly Cloudy
1:45 PM 80.6 °F 83.2 °F 68.0 °F 65% 30.04 in 10.0 mi East 8.1 mph - N/A   Mostly Cloudy
1:52 PM 80.1 °F 82.7 °F 68.0 °F 67% 30.04 in 10.0 mi East 6.9 mph - N/A   Mostly Cloudy
2:52 PM 81.0 °F 83.8 °F 68.0 °F 65% 30.02 in 10.0 mi East 11.5 mph - N/A   Scattered Clouds
3:52 PM 82.9 °F 85.4 °F 66.9 °F 58% 30.01 in 10.0 mi ENE 10.4 mph - N/A   Scattered Clouds
4:52 PM 82.0 °F 84.1 °F 66.0 °F 58% 30.01 in 10.0 mi Calm Calm - N/A   Partly Cloudy
5:52 PM 82.9 °F 85.0 °F 66.0 °F 56% 30.00 in 10.0 mi East 9.2 mph - N/A   Partly Cloudy
6:52 PM 81.0 °F 83.3 °F 66.9 °F 62% 30.01 in 10.0 mi ENE 9.2 mph - N/A   Partly Cloudy
7:52 PM 78.1 °F - 66.9 °F 68% 30.02 in 10.0 mi ENE 5.8 mph - N/A   Partly Cloudy
8:52 PM 75.0 °F - 68.0 °F 79% 30.04 in 10.0 mi ENE 6.9 mph - N/A   Mostly Cloudy
9:52 PM 73.9 °F - 66.9 °F 79% 30.06 in 10.0 mi NE 6.9 mph - N/A   Mostly Cloudy
10:52 PM 73.0 °F - 66.0 °F 79% 30.07 in 10.0 mi ENE 6.9 mph - N/A   Mostly Cloudy
11:52 PM 73.0 °F - 69.1 °F 87% 30.08 in 10.0 mi SE 9.2 mph - N/A   Mostly Cloudy